Погода в Платамонасе

Греция     39°59′25″N   22°37′25″E
темп.,
°C
ветер,
м/с
пор.,
м/с
влажн.,
%
обл.,
%
осадки,
мм/ч
давл.,
гПа
погр.,
м
13 мая, чт
чт1300:00+12зсз22783 0.0 100920
03:00+13зсз227043 0.0 100818
06:00+11з22610 0.0 100815
09:00+16ю12460 0.0 1008566
12:00+19ю24380 0.0 10071491
15:00+21ююз164143 0.0 10072286
18:00+17зсз235945 0.1 1007416
21:00+13з44575 0.1 100849
14 мая, пт
пт1400:00+12зюз44565 0.0 101055
03:00+11з44605 0.0 101047
06:00+10зюз44620 0.0 101158
09:00+15зюз23500 0.0 1012645
12:00+19юз13402 0.0 10121638
15:00+20зюз364196 0.1 10122209
18:00+19зюз3740100 0.0 10111960
21:00+14зюз45585 0.0 101266
15 мая, сб
сб1500:00+13зюз44510 0.0 101357
03:00+12з4338100 0.0 101237
06:00+11зюз3341100 0.0 101130
09:00+16юз244599 0.0 1011332
12:00+13юз3862100 1.0 1012965
15:00+12юз5107079 2.9 1010896
18:00+15зюз455687 0.1 10081236
21:00+10зюз337737 0.5 100948
16 мая, вс
вс1600:00+10з327029 0.1 100920
03:00+9з22693 0.1 100916
06:00+9з32690 0.0 100919
09:00+14в115386 0.0 1009567
12:00+18вюв224873 0.0 10091399
15:00+19всв124534 0.0 10081204
18:00+19св124550 0.0 1008919
21:00+15зсз2260100 0.0 100914
17 мая, пн
пн1700:00+14з32595 0.0 101019
03:00+13з22590 0.0 101015
06:00+13з32560 0.0 101019
09:00+18ю01480 0.0 1011406
12:00+22ю24420 0.0 10101516
15:00+24ююз144017 0.0 10101884
18:00+23ю254639 0.0 10091599
21:00+17зсз33605 0.0 101142